Location: Ailingen
(47.6833°N, 9.5000°E)
Time: 12:57:33
(UTC+00:00)

Cosmos 1536 Rocket - Pass Details

Date: 18 November 2025
Orbit: 599 x 625 km, 82.5° (Epoch: 06 December)

Event Time Altitude Azimuth Distance (km) Brightness Sun altitude
Rises 17:05:52 0° 354° (N) 2,917 6.9 -14.0°
Reaches altitude 10° 17:08:11 10° 0° (N) 2,003 6.0 -14.4°
Maximum altitude 17:12:30 50° 77° (ENE) 790 3.7 -15.1°
Drops below altitude 10° 17:16:46 10° 153° (SSE) 1,973 6.0 -15.8°
Sets 17:19:01 0° 159° (SSE) 2,869 6.9 -16.1°
